EW8714 Weather Reports


Display with metric or nautical units.
time (UTC)temp
F
wind
direction
speed
MPH
gust
MPH
rain 1hr
in
rain 24hr
in
rain mn
in
humidity
%
barometer
mb
20260503035018 56 98 2.0 4.0 0.00 0.00 0.00 25 1017.0
20260503034516 56 98 1.0 4.0 0.00 0.00 0.00 26 1017.0
20260503034015 56 98 2.0 4.0 0.00 0.00 0.00 25 1017.1
20260503033516 56 98 2.0 3.0 0.00 0.00 0.00 26 1017.1
20260503033026 55 98 1.0 3.0 0.00 0.00 0.00 27 1017.1
20260503032518 55 98 0.0 2.0 0.00 0.00 0.00 27 1017.1
20260503032018 55 98 0.0 2.0 0.00 0.00 0.00 29 1017.1
20260503031516 55 98 0.0 2.0 0.00 0.00 0.00 25 1017.1
20260503031016 54 98 0.0 2.0 0.00 0.00 0.00 25 1017.0
20260503030519 55 98 0.0 1.0 0.00 0.00 0.00 26 1017.1
20260503030014 55 98 0.0 0.0 0.00 0.00 0.00 26 1017.0
20260503025515 55 98 0.0 0.0 0.00 0.00 0.00 26 1017.0
20260503025015 56 98 0.0 1.0 0.00 0.00 0.00 24 1017.0
20260503024518 57 98 0.0 1.0 0.00 0.00 0.00 22 1017.0
20260503024018 58 98 0.0 1.0 0.00 0.00 0.00 23 1016.9
20260503023519 58 98 0.0 1.0 0.00 0.00 0.00 20 1016.9
20260503023019 60 98 0.0 1.0 0.00 0.00 0.00 25 1016.8
20260503022516 61 98 0.0 1.0 0.00 0.00 0.00 21 1016.8
20260503022015 62 98 0.0 1.0 0.00 0.00 0.00 18 1016.7
20260503021517 62 98 0.0 1.0 0.00 0.00 0.00 16 1016.7
20260503021015 63 98 0.0 2.0 0.00 0.00 0.00 15 1016.6
20260503020515 63 98 0.0 2.0 0.00 0.00 0.00 15 1016.6
20260503020018 64 98 0.0 3.0 0.00 0.00 0.00 15 1016.6
20260503015517 64 98 1.0 4.0 0.00 0.00 0.00 15 1016.5
20260503015017 64 98 2.0 5.0 0.00 0.00 0.00 15 1016.5
20260503014517 65 98 2.0 5.0 0.00 0.00 0.00 15 1016.5
20260503014017 65 98 1.0 5.0 0.00 0.00 0.00 14 1016.5
20260503013517 66 98 1.0 3.0 0.00 0.00 0.00 14 1016.5
20260503013020 66 98 0.0 3.0 0.00 0.00 0.00 14 1016.5
20260503012518 67 98 1.0 5.0 0.00 0.00 0.00 13 1016.4
20260503012022 67 98 1.0 5.0 0.00 0.00 0.00 12 1016.4
20260503011517 68 98 2.0 4.0 0.00 0.00 0.00 11 1016.3
20260503011016 68 99 1.0 4.0 0.00 0.00 0.00 11 1016.3
20260503010517 69 100 0.0 3.0 0.00 0.00 0.00 11 1016.3
20260503010016 69 100 0.0 5.0 0.00 0.00 0.00 11 1016.3
20260503005516 69 100 1.0 5.0 0.00 0.00 0.00 10 1016.3
20260503005019 70 100 1.0 4.0 0.00 0.00 0.00 11 1016.3
20260503004520 70 100 2.0 4.0 0.00 0.00 0.00 9 1016.3
20260503004018 69 103 1.0 7.0 0.00 0.00 0.00 8 1016.3
20260503003518 69 103 3.0 7.0 0.00 0.00 0.00 11 1016.4
20260503003036 70 101 3.0 6.0 0.00 0.00 0.00 8 1016.3
20260503002516 70 74 2.0 7.0 0.00 0.00 0.00 10 1016.4
20260503002019 70 51 1.0 7.0 0.00 0.00 0.00 10 1016.5
20260503001541 70 102 2.0 6.0 0.00 0.00 0.00 10 1016.5
20260503001022 70 103 3.0 6.0 0.00 0.00 0.00 9 1016.5
20260503000518 71 96 1.0 4.0 0.00 0.00 0.00 11 1016.5
20260503000019 71 96 1.0 6.0 0.00 0.00 0.00 9 1016.6
20260502235518 71 93 2.0 6.0 0.00 0.00 0.00 10 1016.6
20260502235017 71 71 2.0 7.0 0.00 0.00 0.00 10 1016.7
20260502234518 71 56 2.0 7.0 0.00 0.00 0.00 9 1016.7
20260502234019 71 69 3.0 7.0 0.00 0.00 0.00 8 1016.8
20260502233516 71 79 1.0 9.0 0.00 0.00 0.00 8 1016.8
20260502233026 71 98 5.0 9.0 0.00 0.00 0.00 9 1016.8
20260502232522 72 71 3.0 6.0 0.00 0.00 0.00 8 1016.8
20260502232020 72 65 3.0 9.0 0.00 0.00 0.00 8 1016.8
20260502231523 71 50 3.0 9.0 0.00 0.00 0.00 8 1016.9
20260502231021 71 103 2.0 5.0 0.00 0.00 0.00 9 1016.9
20260502230522 71 110 2.0 8.0 0.00 0.00 0.00 9 1017.0
20260502230022 70 108 5.0 8.0 0.00 0.00 0.00 8 1017.0
20260502225519 71 107 3.0 8.0 0.00 0.00 0.00 7 1017.0
20260502225023 71 171 1.0 4.0 0.00 0.00 0.00 9 1017.0
20260502224524 71 117 1.0 8.0 0.00 0.00 0.00 9 1017.0
20260502224023 71 116 4.0 8.0 0.00 0.00 0.00 8 1017.2
20260502223525 71 77 3.0 7.0 0.00 0.00 0.00 9 1017.2
20260502223024 71 48 3.0 7.0 0.00 0.00 0.00 9 1017.2
20260502222523 71 34 3.0 7.0 0.00 0.00 0.00 9 1017.3
20260502222022 71 103 4.0 7.0 0.00 0.00 0.00 10 1017.3
20260502221507 71 98 3.0 7.0 0.00 0.00 0.00 9 1017.4
20260502221007 71 121 3.0 10.0 0.00 0.00 0.00 10 1017.5
20260502220506 71 110 6.0 10.0 0.00 0.00 0.00 11 1017.5
20260502220008 71 90 3.0 6.0 0.00 0.00 0.00 11 1017.7
20260502215512 71 84 3.0 8.0 0.00 0.00 0.00 14 1017.7
20260502215006 71 101 4.0 8.0 0.00 0.00 0.00 9 1017.8
20260502214507 70 35 4.0 12.0 0.00 0.00 0.00 8 1017.9
20260502214004 69 110 3.0 12.0 0.00 0.00 0.00 9 1018.2
20260502213504 70 93 2.0 10.0 0.00 0.00 0.00 10 1018.2
20260502213010 70 72 5.0 10.0 0.00 0.00 0.00 12 1018.3
20260502212507 70 87 4.0 12.0 0.00 0.00 0.00 13 1018.4
20260502212011 69 115 6.0 12.0 0.00 0.00 0.00 11 1018.5
20260502211511 70 111 4.0 8.0 0.00 0.00 0.00 14 1018.5
20260502211006 70 146 2.0 9.0 0.00 0.00 0.00 14 1018.7
20260502210507 69 97 5.0 9.0 0.00 0.00 0.00 17 1018.8
20260502210013 70 103 4.0 7.0 0.00 0.00 0.00 12 1018.9
20260502205511 70 98 3.0 9.0 0.00 0.00 0.00 15 1019.0
20260502205012 70 82 3.0 9.0 0.00 0.00 0.00 11 1019.0
20260502204512 70 75 3.0 8.0 0.00 0.00 0.00 13 1019.1
20260502204010 69 113 4.0 8.0 0.00 0.00 0.00 11 1019.2
20260502203508 69 94 2.0 9.0 0.00 0.00 0.00 13 1019.2
20260502203009 69 76 6.0 9.0 0.00 0.00 0.00 16 1019.3
20260502202508 69 108 5.0 8.0 0.00 0.00 0.00 13 1019.3
20260502202007 69 35 3.0 7.0 0.00 0.00 0.00 12 1019.4
20260502201514 69 51 3.0 7.0 0.00 0.00 0.00 15 1019.4
20260502201012 69 86 2.0 7.0 0.00 0.00 0.00 13 1019.4
20260502200511 69 87 2.0 12.0 0.00 0.00 0.00 14 1019.5
20260502200011 68 10 4.0 12.0 0.00 0.00 0.00 14 1019.6
20260502195510 68 99 4.0 12.0 0.00 0.00 0.00 17 1019.6
20260502195009 67 86 2.0 7.0 0.00 0.00 0.00 16 1019.7
20260502194514 67 120 3.0 7.0 0.00 0.00 0.00 14 1019.9
20260502194014 68 96 4.0 7.0 0.00 0.00 0.00 16 1019.8
20260502193515 67 101 3.0 7.0 0.00 0.00 0.00 16 1019.9
20260502193014 68 129 3.0 10.0 0.00 0.00 0.00 17 1019.9
20260502192513 67 57 3.0 10.0 0.00 0.00 0.00 15 1020.1
20260502192012 67 109 5.0 8.0 0.00 0.00 0.00 16 1020.0
20260502191512 67 82 2.0 8.0 0.00 0.00 0.00 17 1020.1
20260502191011 67 94 3.0 8.0 0.00 0.00 0.00 20 1020.2
20260502190513 67 120 2.0 7.0 0.00 0.00 0.00 18 1020.3
20260502190017 66 55 2.0 8.0 0.00 0.00 0.00 17 1020.4
20260502185520 66 113 4.0 8.0 0.00 0.00 0.00 17 1020.4
20260502185015 65 102 1.0 7.0 0.00 0.00 0.00 18 1020.5
20260502184521 67 30 1.0 5.0 0.00 0.00 0.00 21 1020.7
20260502184015 66 27 2.0 6.0 0.00 0.00 0.00 19 1020.7
20260502183514 65 24 3.0 6.0 0.00 0.00 0.00 20 1020.7
20260502183015 64 298 3.0 8.0 0.00 0.00 0.00 21 1020.8
20260502182513 63 98 4.0 9.0 0.00 0.00 0.00 19 1020.9
20260502182012 65 102 6.0 9.0 0.00 0.00 0.00 21 1021.0
20260502181521 65 75 2.0 8.0 0.00 0.00 0.00 18 1021.1
20260502181021 64 63 3.0 12.0 0.00 0.00 0.00 20 1021.1
20260502180518 66 114 4.0 12.0 0.00 0.00 0.00 20 1021.2
20260502170516 61 188 4.0 7.0 0.00 0.00 0.00 20 1021.8
20260502164021 61 207 4.0 7.0 0.00 0.00 0.00 21 1022.0
20260502163519 62 72 2.0 6.0 0.00 0.00 0.00 22 1022.0
20260502163031 62 28 2.0 6.0 0.00 0.00 0.00 22 1022.0
20260502162523 62 360 3.0 6.0 0.00 0.00 0.00 24 1022.0
20260502162028 62 356 1.0 5.0 0.00 0.00 0.00 24 1022.0
20260502161524 61 271 1.0 4.0 0.00 0.00 0.00 25 1022.0
20260502161022 60 269 2.0 4.0 0.00 0.00 0.00 23 1022.1
20260502160524 60 215 1.0 6.0 0.00 0.00 0.00 26 1022.0
20260502152023 57 212 1.0 6.0 0.00 0.00 0.00 32 1022.5
20260502151510 56 212 3.0 6.0 0.00 0.00 0.00 32 1022.5
20260502151008 55 214 1.0 6.0 0.00 0.00 0.00 33 1022.5
20260502150508 55 215 2.0 6.0 0.00 0.00 0.00 33 1022.6
20260502130511 38 39 0.0 0.0 0.00 0.00 0.00 62 1022.6
20260502123515 33 39 0.0 0.0 0.00 0.00 0.00 67 1022.5
20260502123012 33 39 0.0 0.0 0.00 0.00 0.00 66 1022.4
20260502122512 33 39 0.0 0.0 0.00 0.00 0.00 65 1022.5
20260502122010 33 39 0.0 0.0 0.00 0.00 0.00 65 1022.3
20260502121513 34 39 0.0 0.0 0.00 0.00 0.00 64 1022.4
20260502121012 34 39 0.0 0.0 0.00 0.00 0.00 63 1022.3
20260502120511 35 39 0.0 0.0 0.00 0.00 0.00 62 1022.4
20260502115513 35 39 0.0 0.0 0.00 0.00 0.00 61 1022.3
20260502115012 36 39 0.0 0.0 0.00 0.00 0.00 61 1022.2
20260502114513 36 39 0.0 0.0 0.00 0.00 0.00 60 1022.2
20260502114012 36 39 0.0 0.0 0.00 0.00 0.00 60 1022.1
20260502113512 37 39 0.0 0.0 0.00 0.00 0.00 60 1022.1
20260502113011 37 39 0.0 0.0 0.00 0.00 0.00 59 1022.1
20260502112510 37 39 0.0 0.0 0.00 0.00 0.00 59 1022.1
20260502112014 37 39 0.0 0.0 0.00 0.00 0.00 59 1022.0
20260502111512 36 39 0.0 0.0 0.00 0.00 0.00 59 1021.9
20260502111012 36 39 0.0 0.0 0.00 0.00 0.00 59 1022.0
20260502110512 37 39 0.0 0.0 0.00 0.00 0.00 58 1021.9
20260502110013 37 39 0.0 0.0 0.00 0.00 0.00 58 1021.9
20260502105514 37 39 0.0 0.0 0.00 0.00 0.00 59 1021.9
20260502105012 37 39 0.0 0.0 0.00 0.00 0.00 60 1021.9
20260502104512 36 39 0.0 0.0 0.00 0.00 0.00 60 1021.9
20260502104011 36 39 0.0 0.0 0.00 0.00 0.00 62 1022.0
20260502103511 36 39 0.0 0.0 0.00 0.00 0.00 62 1022.0
20260502103016 35 39 0.0 0.0 0.00 0.00 0.00 62 1021.8
20260502102516 35 39 0.0 0.0 0.00 0.00 0.00 62 1022.0
20260502102016 35 39 0.0 0.0 0.00 0.00 0.00 60 1022.0
20260502101517 36 39 0.0 0.0 0.00 0.00 0.00 62 1021.9
20260502101016 35 39 0.0 0.0 0.00 0.00 0.00 63 1021.8
20260502100514 36 39 0.0 0.0 0.00 0.00 0.00 60 1021.8
20260502091519 41 39 1.0 5.0 0.00 0.00 0.00 50 1021.6
20260502091018 42 39 0.0 5.0 0.00 0.00 0.00 50 1021.6
20260502090520 42 37 1.0 5.0 0.00 0.00 0.00 48 1021.5
20260502071522 42 49 1.0 3.0 0.00 0.00 0.00 48 1021.6
20260502071021 42 49 2.0 3.0 0.00 0.00 0.00 49 1021.7
20260502070522 41 49 2.0 3.0 0.00 0.00 0.00 50 1021.7
20260502070032 41 49 1.0 2.0 0.00 0.00 0.00 53 1021.8
20260502065524 41 49 1.0 2.0 0.00 0.00 0.00 53 1021.8
20260502065021 42 49 1.0 2.0 0.00 0.00 0.00 52 1021.8
20260502064526 42 49 1.0 3.0 0.00 0.00 0.00 50 1021.8
20260502064025 43 49 1.0 3.0 0.00 0.00 0.00 47 1021.9
20260502063524 43 49 2.0 3.0 0.00 0.00 0.00 47 1021.8
20260502063030 43 49 2.0 3.0 0.00 0.00 0.00 48 1021.8
20260502062526 45 49 2.0 4.0 0.00 0.00 0.00 47 1021.8
20260502062026 46 49 2.0 4.0 0.00 0.00 0.00 43 1021.9
20260502061505 46 50 3.0 4.0 0.00 0.00 0.00 41 1021.9
20260502061004 45 53 3.0 4.0 0.00 0.00 0.00 41 1021.9
20260502060502 45 54 2.0 4.0 0.00 0.00 0.00 43 1021.9
20260502060026 45 56 1.0 3.0 0.00 0.00 0.00 50 1021.9
20260502055533 45 56 2.0 3.0 0.00 0.00 0.00 50 1021.9
20260502055025 46 56 1.0 2.0 0.00 0.00 0.00 46 1021.9
20260502054523 45 56 0.0 2.0 0.00 0.00 0.00 44 1021.8
20260502054023 45 56 1.0 2.0 0.00 0.00 0.00 46 1021.7
20260502053525 45 56 1.0 2.0 0.00 0.00 0.00 46 1021.6
20260502053006 44 56 0.0 3.0 0.00 0.00 0.00 47 1021.6
20260502052509 44 56 2.0 3.0 0.00 0.00 0.00 46 1021.6
20260502052006 44 56 1.0 2.0 0.00 0.00 0.00 46 1021.5
20260502051517 44 56 0.0 2.0 0.00 0.00 0.00 45 1021.5
20260502051005 45 56 0.0 0.0 0.00 0.00 0.00 45 1021.5
20260502050505 45 56 0.0 0.0 0.00 0.00 0.00 45 1021.5
20260502050006 45 56 0.0 0.0 0.00 0.00 0.00 44 1021.5
20260502045506 45 56 0.0 0.0 0.00 0.00 0.00 47 1021.5
20260502045007 45 56 0.0 0.0 0.00 0.00 0.00 49 1021.5
20260502044510 45 56 0.0 0.0 0.00 0.00 0.00 47 1021.5
20260502044009 45 56 0.0 0.0 0.00 0.00 0.00 44 1021.5
20260502043509 46 56 0.0 0.0 0.00 0.00 0.00 46 1021.5
20260502043014 46 56 0.0 0.0 0.00 0.00 0.00 46 1021.5
20260502042510 46 56 0.0 0.0 0.00 0.00 0.00 45 1021.4
20260502042009 46 56 0.0 0.0 0.00 0.00 0.00 42 1021.4
20260502041511 46 56 0.0 1.0 0.00 0.00 0.00 43 1021.3
20260502041010 47 56 0.0 1.0 0.00 0.00 0.00 41 1021.3
20260502040510 48 56 0.0 1.0 0.00 0.00 0.00 40 1021.2
20260502040011 49 56 0.0 0.0 0.00 0.00 0.00 38 1021.2
20260502035511 51 56 0.0 1.0 0.00 0.00 0.00 37 1021.1